Terminal Aerodrome Forecast
Issued by NWS Flagstaff, AZ

Home | Current Version | Previous Version | Text Only | Print | Product List | Glossary On
Versions: 1 2 3 4 5 6 7 8 9 10 11 12 13 14 15 16 17 18 19 20 21 22 23 24 25 26 27 28 29 30 31 32 33
153
FTUS45 KFGZ 231145
TAFFLG
TAF
KFLG 231145Z 2312/2412 22018G26KT 3SM -SN BR SCT007 OVC010
      TEMPO 2312/2316 1SM -SN BR OVC004
     FM231600 22020G30KT 1/2SM SN FZFG VV003=

USA.gov is the U.S. government's official web portal to all federal, state and local government web resources and services.